Regional Weather Roundup
Issued by NWS Wakefield, VA

Home | Current Version | Previous Version | Text Only | Print | Product List | Glossary On
Versions: 1 2 3 4 5 6 7 8 9 10 11 12 13 14 15 16 17 18 19 20 21 22 23 24 25 26 27
000
ASUS41 KAKQ 160915
RWRAKQ

REGIONAL WEATHER ROUNDUP
NATIONAL WEATHER SERVICE WAKEFIELD VA
400 AM EST TUE JAN 16 2018

Note: "fair" indicates few or no clouds below 12,000 feet with no
significant weather and/or obstructions to visibility. * = Denotes
station may not report precipitation (e.g., rain,snow,etc.),
thunder or fog.

VAZ042-051-052>054-056-161000-
NORTHERN VIRGINIA

CITY           SKY/WX    TMP DP  RH WIND       PRES   REMARKS
WASH NATIONAL  CLOUDY    31  28  89 SE5       30.46F
DULLES         CLOUDY    27  25  92 CALM      30.44S
FORT BELVOIR   CLOUDY    30  27  90 CALM      30.46S
QUANTICO       CLOUDY    28  25  88 CALM      30.47F
FREDERICKSBRG* CLOUDY    28  28 100 CALM      30.46R
STAFFORD*      CLOUDY    26  26 100 CALM      30.49S
WARRENTON      CLOUDY    25  22  89 CALM      30.44R FOG
CULPEPER*      FAIR      23  21  89 CALM      30.46R
MANASSAS*      FAIR      22  19  89 CALM      30.46S
LEESBURG*      CLOUDY    28  28 100 S3        30.45R
WINCHESTER       N/A    N/A N/A N/A MISG        N/A
FRONT ROYAL*   PTSUNNY   23  19  86 MISG      30.38S
LURAY*         FAIR      25  21  86 CALM      30.38F
$$

VAZ048-049-060>072-079>083-161000-
CENTRAL AND SOUTH CENTRAL VIRGINIA

CITY           SKY/WX    TMP DP  RH WIND       PRES   REMARKS
RICHMOND       CLOUDY    27  26  96 NE3       30.45S FOG
CHESTERFIELD*  NOT AVBL
PETERSBURG*    FOG       25  23  93 CALM      30.46S VSB 1/4
HANOVER        CLOUDY    27  25  92 CALM      30.46F FOG
TAPPAHANNOCK*  CLOUDY    31  30  96 CALM      30.46S
QUINTON*       CLOUDY    28  27  99 N3        30.44F
CHARLOTTSVILLE FAIR      24  13  62 SE3       30.41S
GORDONSVILLE*  FAIR      21  20  97 CALM      30.43S
ORANGE*        FAIR      21  19  93 CALM      30.44R
LOUISA*        FAIR      17  15  93 CALM      30.48R
BUMPASS*       CLOUDY    23  22  96 CALM      30.44S VSB 1/2
FARMVILLE*     FAIR      18  18 100 CALM      30.43S
CREWE*         FAIR      17  17 100 CALM      30.45R
FORT PICKETT*  FAIR      19  19 100 W3        30.44R
CHASE CITY*    FAIR      19  19 100 CALM      30.44R
CLARKSVILLE*   FAIR      19  19 100 CALM      30.44S
SOUTH HILL*    FAIR      19  17  92 CALM      30.50R
LAWRENCEVILLE* FAIR      21  19  93 CALM      30.44R
EMPORIA*       CLOUDY    23  23 100 CALM      30.47S FOG
$$

VAZ088>098-161000-
SOUTHEAST VIRGINIA

CITY           SKY/WX    TMP DP  RH WIND       PRES   REMARKS
NORFOLK        FOG       33  33 100 N6        30.44S VSB 1
VIRGINIA BEACH FOG       33  30  88 N9        30.43S VSB 1
NORFOLK NAVAL  FOG       33  31  92 NW6       30.46R VSB 1/2
WEST POINT*    CLOUDY    31  30  97 N3        30.47F
SALUDA*        CLOUDY    31  30  99 N5        30.46R
NEWPORT NEWS   FOG       31  30  96 N5        30.46R VSB 1/2
LANGLEY AFB    FOG       31  31  99 NW8       30.45R VSB 1/2
FORT EUSTIS    CLOUDY    31  29  95 CALM      30.43S FOG
WILLIAMSBURG*  CLOUDY    34  28  80 CALM      30.46S
HR EXEC AP*    MIX PCPN  32  30  92 VRB3      30.46R VSB 3/4
FRANKLIN*      FOG       30  29  98 NE3       30.46S VSB 3/4
US460-WAKEFLD  CLOUDY    29  29 100 CALM      30.45S FOG
$$

VAZ020-022-025-037-045-161000-
WEST CENTRAL AND SOUTHWEST VIRGINIA

CITY           SKY/WX    TMP DP  RH WIND       PRES   REMARKS
STAUNTON*      FAIR      24  12  59 S5        30.38F
WAYNESBORO*    FAIR      22  13  68 CALM      30.36S
HOT SPRINGS VA FAIR      28  19  66 W14       30.23S WCI  17
LYNCHBURG      FAIR      19  12  74 CALM      30.41R
DANVILLE       FAIR      17  13  84 CALM      30.44S
SOUTH BOSTON*  FAIR      16  14  92 CALM      30.45S
MARTINSVILLE   FAIR      16  13  88 CALM      30.43F
ROANOKE        FAIR      23  32 100 CALM      30.41S
BLACKSBURG     FAIR      21  14  75 E3        30.35F
DUBLIN*        FAIR      22  14  73 NW3       30.35S
MARION*        FAIR      22  15  75 CALM      30.33S
HILLSVILLE*    FAIR      22  13  67 S3        30.27F
RICHLANDS*     FAIR      32  21  62 SW5       30.28F
WISE*          FAIR      32  23  69 S5        30.27F
ABINGDON*      FAIR      27  24  89 CALM      30.31S
$$

MDZ021>025-VAZ099-100-161000-
SOUTHERN MARYLAND AND THE DELMARVA PENINSULA

CITY           SKY/WX    TMP DP  RH WIND       PRES   REMARKS
PATUXENT RIVER CLOUDY    29  29 100 CALM      30.46S FOG
BAY BRIDGE APT CLOUDY    28  25  86 NW3       30.47S FOG
LEONARDTOWN    CLOUDY    30  28  93 CALM      30.47F
DOVER          CLOUDY    28  28 100 CALM      30.46S
GEORGETOWN     FAIR      27  25  92 NW3       30.46R
EASTON         CLOUDY    31  24  78 N3        30.49F
CAMBRIDGE      CLOUDY    30  25  80 N5        30.46F
SALISBURY      CLOUDY    27  27 100 NW5       30.45S
OCEAN CITY     MOCLDY    29  29 100 NW7       30.44F FOG
WALLOPS ISLAND FOG       30  30 100 NW9       30.44S VSB 1
ACCOMACK*      FOG       31  31  99 NW7       30.44F VSB 3/4
$$

NCZ012>017-030>032-161000-
NORTH CENTRAL AND EASTERN NORTH CAROLINA

CITY           SKY/WX    TMP DP  RH WIND       PRES   REMARKS
ROANOKE RAPIDS FAIR      23  23 100 CALM      30.45S
RALEIGH        FAIR      21  16  81 CALM      30.45S
ELIZABETH CITY FOG       32  32 100 NW8       30.44S VSB 1/4
AHOSKIE*       CLOUDY    26  26 100 N3        30.45S FOG
EDENTON*       FOG       30  29  97 N3        30.45S VSB 3/4
CURRITUCK*     FOG       32  32 100 N5        30.44S VSB 1/2
KILL DEVIL HLS FOG      N/A N/A N/A MISG      30.41R VSB 3/4
MANTEO         FOG       34  34 100 N8        30.42S VSB 1/2
CAPE HATTERAS  NOT AVBL
TARBORO*       NOT AVBL
GOLDSBORO      FAIR      26  21  84 CALM      30.44R
WASHINGTON     FAIR      27  25  91 CALM      30.45R
GREENVILLE     FAIR      23  21  93 CALM      30.45R
NEW BERN       FAIR      28  25  88 N3        30.44F
WILMINGTON     FAIR      29  25  85 NW3       30.43S
$$

VAZ048-161000-
ELSEWHERE

CITY           SKY/WX    TMP DP  RH WIND       PRES   REMARKS
HARRISBURG PA  CLOUDY    27  20  75 E5        30.44S
BALTIMORE      CLOUDY    28  25  88 E3        30.45F
ANNAPOLIS      CLOUDY    30  28  92 CALM      30.46F FOG
ANDREWS AFB    CLOUDY    28  27  93 SE3       30.44S FOG
PHILADELPHIA   CLOUDY    30  24  78 E9        30.48F
HENDERSON NC   FAIR      19  15  86 CALM      30.43S
GREENSBORO     FAIR      22  14  71 CALM      30.41F
ROCKY MOUNT    FAIR      25  22  88 CALM      30.46R
$$

VAZ100-161000-
MARINE

STATION/POSITION TIME  TEMP    WIND        PRES    WAVE   SWELL
                       AIR SEA DIR/SP/G            HT/PER HT/PER
                 (UTC) (F)     (DEG/KT/KT) (MB)    (FT/S) (FT/S)
BRANDYWINE LGT   0842   30      20/  9/ 10 1031.8R
CAPE MAY NJ      0842   28 34   10/  2/  3 1030.9R
LEWES DE         0842   31 34   10/  8/  9 1031.2R
15NM E FENWICK I 0850   42 42   50/ 10/ 12 1030.6F   6/ 8   7/ 8
OCEAN-CITY-INLET 0842   32 33  360/  7/  8 1031.1F
WACHAPREAGUE VA  0842   30 34  310/  1/  7 1030.6R
THOMAS POINT MD  0900   29 32  360/  3/  4   N/A
GOOSES REEF MD   0900   29 33   10/  4/  6 1031.9
COVE POINT MD    0842   28     350/  5/  7 1032.0F
SOLOMONS ISLAND  0842   29 34  360/  3/  5 1031.2F
BISHOPS HEAD MD  0842   30 31  340/  5/  7 1031.7F
PINEY POINT MD   0836          350/  3/  3   N/A
POTOMAC MD       0900   30 34   60/  6/  8 1031.0    1
CAMBRIDGE MD     0842   29 31              1032.1F
LEWISETTA VA     0842   30 32  300/  4/  4 1031.6R
RAPPAHANNOCK LGT 0836          340/ 13/ 14 1031.5F
STINGRAY PT      0900   31 34  350/  8/  8 1033.6    1
YORK RVR RNG VA  0836   31     360/  8/ 10 1031.6S
YORKTOWN VA      0836   31 35  310/  4/  5 1031.0S
DOMINION TERM VA 0836   31     330/  5/  5 1031.2F
KIPTOPEKE VA     0836      35  350/ 12/ 14   N/A
CAPE HENRY VA    0836          330/ 10/ 12   N/A
WILLOUBY STN VA  0836           10/  6/  7 1030.8F
S CRANEY ISL VA  0836   32     350/  6/  9 1030.7F
CAPE HENRY BUOY  0830      41                N/A     4/ 7   2/11
1ST LANDING BUOY 0900   32 36  360/ 10/ 12 1030.8    2/ 4
CAPE CHARLES BUO 0851      39                N/A     4/10   2/11
64NM E OF VA BCH 0850   50 65  330/ 16/ 19 1028.8S   7/ 9   7/ 9
DUCK PIER NC     0836   34 38  340/ 11/ 12 1029.6R
44100 DUCK FRF   0815      42                N/A     6/11   2/11
44056 DUCK FRF   0830      39                N/A     6/11   2/11
OREGON INLET NC  0836   36 41  340/  9/ 14 1029.5R
HATTERAS NC      0836   36 43  360/ 12/ 14 1028.8F
DIAMOND SHLS NC  0900   47 67  360/ 16/ 21 1028.5
CAPE LOOKOUT NC  0900          330/ 10/ 11 1029.7S
$$




USA.gov is the U.S. government's official web portal to all federal, state and local government web resources and services.